Hillsdale, MI

4:28 PM EDT on October 21, 2017 (GMT -0400)
Hillsdale Municipal

Weather History for KJYM - December, 2013

Change the Weather History Date:

Tuesday, December 17, 2013

  Actual Average Record
Temperature  
Mean Temperature 20 °F -  
Max Temperature 26 °F 34 °F 61 °F (1984)
Min Temperature 14 °F 19 °F -5 °F (1951)
Degree Days  
Heating Degree Days 45    
Moisture  
Dew Point 19 °F    
Average Humidity 91    
Maximum Humidity 100    
Minimum Humidity 80    
Precipitation  
Precipitation 0.00 in - - ()
Sea Level Pressure  
Sea Level Pressure 29.92 in    
Wind  
Wind Speed 6 mph (WSW)    
Max Wind Speed 14 mph    
Max Gust Speed 20 mph    
Visibility 4 miles    
Events Snow    
Averages and records for this station are not official NWS values.
T = Trace of Precipitation, MM = Missing Value Source: NWS Daily Summary

Daily Weather History Graph

Daily Weather History Graph

Search for Another Location

Airport or City:

Trip Planner

Search our weather history database for the weather conditions in past years. The results will help you decide how hot, cold, wet, or windy it might be!

Date:

Astronomy

Dec. 17, 2013 Rise Set
Actual Time 8:00 AM EST 5:08 PM EST
Civil Twilight 7:28 AM EST 5:40 PM EST
Nautical Twilight 6:53 AM EST 6:15 PM EST
Astronomical Twilight 6:19 AM EST 6:49 PM EST
Moon 5:48 PM EST (12/17) 7:55 AM EST (12/17)
Length of Visible Light 10h 11m
Length of Day
9h 08m
Full, 100% of the Moon is Illuminated
Dec 17
Full
Dec 25
Last Quarter
Jan 1
New
Jan 7
First Quarter
Jan 15
Full

Hourly Weather History & Observations

Time (EST) Temp. Windchill Dew Point Humidity Pressure Visibility Wind Dir Wind Speed Gust Speed Precip Events Conditions
12:15 AM 15.1 °F - 12.6 °F 90% 29.95 in 4.0 mi Calm Calm - N/A Snow Light Snow
12:34 AM 14.4 °F - 12.4 °F 92% 29.95 in 5.0 mi Calm Calm - N/A Snow Light Snow
12:55 AM 14.7 °F - 12.6 °F 91% 29.95 in 7.0 mi Calm Calm - N/A Snow Light Snow
1:14 AM 15.3 °F - 12.9 °F 90% 29.94 in 10.0 mi Calm Calm - N/A   Overcast
1:34 AM 15.4 °F - 13.1 °F 90% 29.93 in 10.0 mi Calm Calm - N/A   Overcast
1:55 AM 15.6 °F 10.0 °F 13.1 °F 90% 29.92 in 10.0 mi West 3.5 mph - N/A   Overcast
2:14 AM 14.5 °F 8.8 °F 12.0 °F 90% 29.92 in 10.0 mi West 3.5 mph - N/A   Mostly Cloudy
2:34 AM 14.4 °F 8.6 °F 12.4 °F 92% 29.92 in 7.0 mi WSW 3.5 mph - N/A   Clear
2:55 AM 15.1 °F 7.7 °F 12.9 °F 91% 29.92 in 7.0 mi West 4.6 mph - N/A   Mostly Cloudy
3:14 AM 15.6 °F 10.0 °F 13.6 °F 92% 29.93 in 7.0 mi West 3.5 mph - N/A   Overcast
3:35 AM 16.2 °F 10.6 °F 14.4 °F 93% 29.92 in 7.0 mi West 3.5 mph - N/A   Overcast
3:55 AM 16.9 °F 8.5 °F 15.1 °F 93% 29.93 in 5.0 mi West 5.8 mph - N/A   Overcast
4:14 AM 17.2 °F 10.2 °F 16.2 °F 96% 29.92 in 4.0 mi West 4.6 mph - N/A   Overcast
4:35 AM 17.6 °F 9.3 °F 16.5 °F 96% 29.93 in 3.0 mi West 5.8 mph - N/A   Overcast
4:55 AM 18.0 °F 8.7 °F 16.7 °F 95% 29.93 in 2.0 mi West 6.9 mph - N/A   Overcast
5:14 AM 18.3 °F 10.2 °F 17.2 °F 96% 29.92 in 2.0 mi West 5.8 mph - N/A   Overcast
5:35 AM 18.9 °F 9.8 °F 17.8 °F 96% 29.92 in 2.5 mi WSW 6.9 mph - N/A   Overcast
5:55 AM 19.9 °F 11.1 °F 18.9 °F 96% 29.92 in 3.0 mi West 6.9 mph - N/A   Overcast
6:14 AM 20.7 °F 11.0 °F 19.8 °F 96% 29.93 in 3.0 mi West 8.1 mph - N/A   Overcast
6:35 AM 21.0 °F 9.9 °F 20.1 °F 96% 29.94 in 3.0 mi West 10.4 mph - N/A   Overcast
6:54 AM 21.2 °F 9.5 °F 20.3 °F 96% 29.94 in 3.0 mi West 11.5 mph - N/A   Overcast
7:14 AM 21.4 °F 9.7 °F 20.5 °F 96% 29.95 in 3.0 mi West 11.5 mph 17.3 mph N/A   Overcast
7:35 AM 21.4 °F 10.4 °F 20.7 °F 97% 29.95 in 3.0 mi West 10.4 mph 16.1 mph N/A   Overcast
7:54 AM 21.4 °F 11.9 °F 20.7 °F 97% 29.94 in 3.0 mi West 8.1 mph - N/A   Overcast
8:14 AM 21.4 °F 10.4 °F 20.5 °F 96% 29.94 in 2.0 mi West 10.4 mph 16.1 mph N/A   Overcast
8:35 AM 21.4 °F 10.4 °F 20.5 °F 96% 29.95 in 2.5 mi West 10.4 mph - N/A   Overcast
8:54 AM 21.2 °F 10.9 °F 20.3 °F 96% 29.95 in 3.0 mi West 9.2 mph 16.1 mph N/A   Overcast
9:15 AM 21.0 °F 13.4 °F 20.1 °F 96% 29.93 in 3.0 mi SW 5.8 mph - N/A   Overcast
9:35 AM 20.7 °F 11.9 °F 19.6 °F 96% 29.93 in 3.0 mi SW 6.9 mph - N/A   Overcast
9:54 AM 20.7 °F 11.0 °F 19.6 °F 96% 29.93 in 3.0 mi WSW 8.1 mph - N/A   Overcast
10:15 AM 20.7 °F 11.9 °F 19.6 °F 96% 29.94 in 2.5 mi SW 6.9 mph - N/A   Overcast
10:34 AM 21.2 °F 11.7 °F 20.1 °F 96% 29.93 in 3.0 mi SSW 8.1 mph - N/A   Overcast
10:55 AM 21.0 °F 10.6 °F 19.9 °F 96% 29.92 in 4.0 mi South 9.2 mph - N/A   Mostly Cloudy
11:15 AM 20.7 °F 11.0 °F 18.7 °F 92% 29.91 in 4.0 mi South 8.1 mph - N/A   Scattered Clouds
11:34 AM 21.9 °F 11.7 °F 18.9 °F 88% 29.89 in 4.0 mi South 9.2 mph - N/A   Scattered Clouds
11:55 AM 22.5 °F 12.4 °F 18.7 °F 85% 29.88 in 5.0 mi South 9.2 mph - N/A   Mostly Cloudy
12:15 PM 22.5 °F 11.1 °F 18.1 °F 83% 29.89 in 7.0 mi SW 11.5 mph 18.4 mph N/A   Mostly Cloudy
12:34 PM 22.5 °F 10.5 °F 18.3 °F 84% 29.89 in 7.0 mi SW 12.7 mph 17.3 mph N/A   Mostly Cloudy
12:55 PM 22.6 °F 11.9 °F 18.9 °F 85% 29.87 in 3.0 mi SW 10.4 mph - N/A Snow Light Snow
1:14 PM 23.5 °F 14.5 °F 19.6 °F 85% 29.87 in 1.5 mi SW 8.1 mph - N/A Snow Light Snow
1:34 PM 24.3 °F 14.6 °F 20.1 °F 84% 29.87 in 2.0 mi WSW 9.2 mph 18.4 mph N/A Snow Light Snow
1:46 PM 24.4 °F 14.9 °F 20.3 °F 84% 29.87 in 1.2 mi WSW 9.2 mph 18.4 mph N/A Snow Light Snow
2:15 PM 24.8 °F 14.0 °F 21.2 °F 86% 29.87 in 0.8 mi WSW 11.5 mph - N/A   Overcast
2:35 PM 24.8 °F 14.0 °F 19.4 °F 80% 29.87 in 1.2 mi WSW 11.5 mph 18.4 mph N/A   Overcast
2:55 PM 24.8 °F 12.9 °F 19.4 °F 80% 29.87 in 2.0 mi WSW 13.8 mph 19.6 mph N/A   Overcast
3:15 PM 24.8 °F 12.9 °F 19.4 °F 80% 29.87 in 5.0 mi WSW 13.8 mph - N/A   Overcast
3:35 PM 24.8 °F 16.9 °F 19.4 °F 80% 29.87 in 5.0 mi West 6.9 mph - N/A   Overcast
3:55 PM 24.8 °F 14.0 °F 19.4 °F 80% 29.88 in 5.0 mi WSW 11.5 mph 18.4 mph N/A   Overcast
4:15 PM 24.8 °F 14.6 °F 19.4 °F 80% 29.88 in 4.0 mi WSW 10.4 mph - N/A   Overcast
4:35 PM 24.8 °F 14.6 °F 21.2 °F 86% 29.89 in 4.0 mi WSW 10.4 mph - N/A   Overcast
4:55 PM 24.8 °F 15.3 °F 21.2 °F 86% 29.88 in 4.0 mi WSW 9.2 mph - N/A   Overcast
5:15 PM 24.8 °F 16.1 °F 21.2 °F 86% 29.89 in 4.0 mi WSW 8.1 mph - N/A   Overcast
5:35 PM 24.8 °F 16.1 °F 21.2 °F 86% 29.89 in 5.0 mi West 8.1 mph - N/A   Overcast
5:55 PM 24.8 °F 14.6 °F 21.2 °F 86% 29.90 in 5.0 mi West 10.4 mph - N/A   Overcast
6:15 PM 24.8 °F 14.6 °F 21.2 °F 86% 29.91 in 5.0 mi West 10.4 mph - N/A   Overcast
6:35 PM 24.8 °F 15.3 °F 23.0 °F 93% 29.91 in 5.0 mi West 9.2 mph - N/A   Overcast
6:55 PM 24.8 °F 14.6 °F 23.0 °F 93% 29.92 in 5.0 mi WSW 10.4 mph - N/A   Overcast
7:15 PM 24.8 °F 14.0 °F 23.0 °F 93% 29.92 in 5.0 mi WSW 11.5 mph - N/A   Mostly Cloudy
7:35 PM 24.8 °F 16.1 °F 23.0 °F 93% 29.93 in 5.0 mi West 8.1 mph - N/A   Scattered Clouds
7:55 PM 24.8 °F 16.1 °F 23.0 °F 93% 29.94 in 4.0 mi West 8.1 mph - N/A   Mostly Cloudy
8:15 PM 24.8 °F 17.9 °F 23.0 °F 93% 29.94 in 4.0 mi WSW 5.8 mph - N/A   Scattered Clouds
8:35 PM 24.8 °F 16.1 °F 23.0 °F 93% 29.94 in 4.0 mi WSW 8.1 mph - N/A   Mostly Cloudy
8:55 PM 24.8 °F 17.9 °F 24.8 °F 100% 29.95 in 4.0 mi WSW 5.8 mph - N/A   Mostly Cloudy
9:15 PM 26.6 °F 18.2 °F 24.8 °F 93% 29.95 in 4.0 mi WSW 8.1 mph - N/A   Overcast
9:35 PM 24.8 °F 16.1 °F 24.8 °F 100% 29.95 in 4.0 mi WSW 8.1 mph - N/A   Overcast
9:55 PM 24.8 °F 17.9 °F 23.0 °F 93% 29.96 in 4.0 mi WSW 5.8 mph - N/A   Mostly Cloudy
10:15 PM 24.8 °F 17.9 °F 23.0 °F 93% 29.96 in 4.0 mi SW 5.8 mph - N/A   Overcast
10:35 PM 24.8 °F 17.9 °F 23.0 °F 93% 29.96 in 5.0 mi WSW 5.8 mph - N/A   Mostly Cloudy
10:55 PM 24.8 °F 19.1 °F 23.0 °F 93% 29.96 in 5.0 mi SW 4.6 mph - N/A   Scattered Clouds
11:15 PM 24.8 °F 17.9 °F 23.0 °F 93% 29.96 in 5.0 mi SW 5.8 mph - N/A   Mostly Cloudy
11:35 PM 24.8 °F 16.1 °F 24.8 °F 100% 29.97 in 5.0 mi SW 8.1 mph - N/A   Overcast
11:55 PM 26.6 °F 18.2 °F 24.8 °F 93% 29.97 in 4.0 mi WSW 8.1 mph - N/A   Overcast